This is the latest recevied weather packets stored in our database for station/object K7FRY. If no packets are shown the sender has not sent any weather packets the latest 10 day(s).
| Time | Temp. | Humidity | Pressure | Rain* | Wind** | Luminosity | Snow |
|---|---|---|---|---|---|---|---|
| 1777915922 | 26.67° C | 27% | 1015 hPa | 0 mm | - | 613 W/m² | - |
| 1777915619 | 27.22° C | 26% | 1015 hPa | 0 mm | - | 576 W/m² | - |
| 1777915315 | 27.78° C | 26% | 1014.9 hPa | 0 mm | - | 739 W/m² | - |
| 1777915011 | 27.78° C | 26% | 1014.7 hPa | 0 mm | - | 358 W/m² | - |
| 1777914709 | 26.67° C | 27% | 1014.8 hPa | 0 mm | - | 757 W/m² | - |
| 1777914405 | 25.56° C | 28% | 1014.8 hPa | 0 mm | - | 633 W/m² | - |
| 1777914103 | 26.11° C | 28% | 1014.9 hPa | 0 mm | - | 506 W/m² | - |
| 1777913799 | 25.56° C | 28% | 1014.6 hPa | 0 mm | - | 514 W/m² | - |
| 1777913495 | 26.11° C | 28% | 1014.7 hPa | 0 mm | - | 605 W/m² | - |
| 1777913192 | 25° C | 29% | 1014.6 hPa | 0 mm | - | 647 W/m² | - |
| 1777912888 | 25.56° C | 28% | 1014.8 hPa | 0 mm | - | 723 W/m² | - |
| 1777912585 | 25.56° C | 29% | 1014.7 hPa | 0 mm | - | 403 W/m² | - |
| 1777912281 | 26.11° C | 28% | 1014.9 hPa | 0 mm | - | 516 W/m² | - |
| 1777911977 | 25° C | 29% | 1014.9 hPa | 0 mm | - | 826 W/m² | - |
| 1777911673 | 25.56° C | 29% | 1015.1 hPa | 0 mm | - | 703 W/m² | - |
| 1777911370 | 26.67° C | 28% | 1015.1 hPa | 0 mm | - | 610 W/m² | - |
| 1777911068 | 25° C | 30% | 1014.9 hPa | 0 mm | - | 537 W/m² | - |
| 1777910765 | 25° C | 29% | 1015 hPa | 0 mm | - | 501 W/m² | - |
| 1777910461 | 24.44° C | 31% | 1014.7 hPa | 0 mm | - | 566 W/m² | - |
| 1777910157 | 25° C | 30% | 1014.7 hPa | 0 mm | - | 444 W/m² | - |
| 1777909855 | 25° C | 30% | 1015 hPa | 0 mm | - | 559 W/m² | - |
| 1777909552 | 25° C | 32% | 1015 hPa | 0 mm | - | 552 W/m² | - |
| 1777909249 | 24.44° C | 32% | 1014.9 hPa | 0 mm | - | 663 W/m² | - |
| 1777908947 | 23.89° C | 34% | 1014.8 hPa | 0 mm | - | 350 W/m² | - |
| 1777908645 | 24.44° C | 34% | 1014.9 hPa | 0 mm | - | 464 W/m² | - |
* Rain latest hour (hover to see other rain measurements)
** Current wind speed in m/s (hover to see current wind gust speed)